Regional Weather Roundup
Issued by NWS

Home | Current Version | Previous Version | Text Only | Print | Product List | Glossary Off
Versions: 1 2 3 4 5 6 7 8 9 10 11 12 13 14 15 16 17 18 19 20 21 22 23 24 25 26 27 28 29 30 31 32 33 34 35 36 37 38 39 40 41 42 43 44 45 46 47 48 49 50

000
ASUS45 KCYS 250810
RWRWY

WYOMING REGIONAL WEATHER ROUNDUP
NATIONAL WEATHER SERVICE CHEYENNE WY
200 AM MDT FRI JUL 25 2014

NOTE:  "FAIR" INDICATES FEW OR NO CLOUDS BELOW 12,000 FEET
WITH NO SIGNIFICANT WEATHER AND/OR OBSTRUCTIONS TO VISIBILITY.

WYZ001-250900-
YELLOWSTONE NATIONAL PARK

CITY           SKY/WX    TMP DP  RH WIND       PRES   REMARKS
LK YELLOWSTONE   N/A     37  24  59 NW3       30.27F
W YELLOWSTONE  NOT AVBL

$$
WYZ002>013-054>058-071-098>099-250900-
NORTHERN WYOMING

CITY           SKY/WX    TMP DP  RH WIND       PRES   REMARKS
JACKSON        CLEAR     41  28  60 NE3       30.18S
CODY           NOT AVBL
GREYBULL       CLEAR     68  44  42 NW3       29.93R
WORLAND        PTCLDY    59  23  25 CALM      29.94F
SHERIDAN       CLEAR     57  49  74 SW6       30.01S
BUFFALO        CLEAR     62  47  57 N5        30.08R
GILLETTE       CLEAR     57  47  69 CALM      30.02R
HULETT         FAIR      59  46  63 MISG      30.02
NEWCASTLE      FAIR      64  54  68 NW18G30   29.91

$$
WYZ014>020-022>026-101>103-250900-
CENTRAL WYOMING

CITY           SKY/WX    TMP DP  RH WIND       PRES   REMARKS
BIG PINEY      CLEAR     48  26  42 NW6       30.22F
PINEDALE       SUNNY     45  36  70 NW6       30.22F
DUBOIS         FAIR      48  19  32 NW20      30.18F
LANDER         PTCLDY    64  22  20 SW8       30.05R
RIVERTON       PTCLDY    62  22  21 NW12      30.05S
CASPER         PTCLDY    59  40  49 CALM      30.09R
DOUGLAS        CLEAR     66  53  63 NW14      30.04R

$$
WYZ021-027>030-104>119-250900-
SOUTHERN WYOMING

CITY           SKY/WX    TMP DP  RH WIND       PRES   REMARKS
EVANSTON       PTCLDY    62  36  37 N8        30.22F
KEMMERER       SUNNY     55  32  41 NW6       30.24F
FORT BRIDGER   FAIR      65  32  28 NW3       30.24F
ROCK SPRINGS   CLEAR     68  26  20 W3        30.19F
DIXON          FAIR      67  45  45 NW3       30.23R
RAWLINS        CLEAR     60  42  51 S6        30.19F
SARATOGA       FAIR      63  45  51 CALM      30.22F
LARAMIE        CLEAR     62  47  57 W12       30.21F
CHEYENNE       CLEAR     67  52  58 SW12      30.11F
TORRINGTON     CLEAR     72  51  47 CALM      29.90S
PINE BLUFFS    FAIR      61  52  72 SE3       30.04S

$$



USA.gov is the U.S. government's official web portal to all federal, state and local government web resources and services.